NORTHEAST SUFFOLK  -  Special Weather Statement Special Weather Statement        NORTHERN NASSAU  -  Special Weather Statement Special Weather Statement        NORTHWEST SUFFOLK  -  Special Weather Statement Special Weather Statement        SOUTHEAST SUFFOLK  -  Special Weather Statement Special Weather Statement        SOUTHERN NASSAU  -  Special Weather Statement Special Weather Statement        SOUTHWEST SUFFOLK  -  Special Weather Statement Special Weather Statement      

Active alerts

Northern Nassau
  Details for Northern Nassau Special Weather Statement
Southern Nassau
  Details for Southern Nassau Special Weather Statement
Northwest Suffolk
  Details for Northwest Suffolk Special Weather Statement
Southwest Suffolk
  Details for Southwest Suffolk Special Weather Statement
Northeast Suffolk
  Details for Northeast Suffolk Special Weather Statement
Southeast Suffolk
  Details for Southeast Suffolk Special Weather Statement


WXM80 ListenWXM80 Stop

You find our weather info also at:

UK Metoffice

WeatherCloud

Weather Underground

Northeastern Weather Network

AWEKAS

Citizen Weather Observer Program (CWOP)

HAMweather, WeatherForYou, PWS Weather


Weather Underground History page Text

Daily Summary for February 12, 2017 Units:  English    Metric   Both
« Previous Day
Next Day »
Daily Weekly Monthly Yearly Custom
  High: Low: Average:
Temperature: 36.8 °F 30.1 °F 33 °F
Dew Point: 36.3 °F 27.2 °F 31.3 °F
Humidity: 98 % 85 % 94 %
Wind Speed: 12.0 mph 0.0 mph 6.4 mph
Wind Gust: 16.1 mph - -
Wind:- - ESE
Pressure: 30.11 in 29.55 in -
Precipitation: 0.00 in    
Historical Graphs
 
 
Tabular Data for February 12, 2017
Time Temperature Dew Point Pressure Wind Wind Speed Wind Gust Humidity Rainfall Rate (Hourly)
00:02 34.6 °F 31.7 °F 30.08 in ENE 2.7 mph 4.0 mph 89 % 0.00 in
00:07 34.6 °F 31.7 °F 30.08 in ENE 1.8 mph 3.5 mph 89 % 0.00 in
00:12 34.6 °F 31.7 °F 30.08 in ENE 1.7 mph 3.5 mph 89 % 0.00 in
00:17 34.6 °F 31.7 °F 30.08 in ENE 0.9 mph 2.3 mph 89 % 0.00 in
00:23 34.6 °F 31.7 °F 30.08 in ENE 0.8 mph 1.2 mph 89 % 0.00 in
00:28 34.6 °F 31.7 °F 30.08 in ENE 0.6 mph 1.2 mph 89 % 0.00 in
00:33 34.5 °F 31.6 °F 30.09 in ENE 0.7 mph 2.0 mph 89 % 0.00 in
00:38 34.5 °F 31.6 °F 30.09 in ENE 1.3 mph 2.3 mph 89 % 0.00 in
00:43 34.4 °F 31.5 °F 30.09 in ENE 4.7 mph 5.8 mph 89 % 0.00 in
00:48 34.5 °F 31.6 °F 30.09 in ENE 6.3 mph 9.0 mph 89 % 0.00 in
00:53 34.5 °F 31.6 °F 30.09 in East 8.2 mph 10.4 mph 89 % 0.00 in
00:58 34.3 °F 30.8 °F 30.09 in East 8.6 mph 11.5 mph 87 % 0.00 in
01:03 34.1 °F 30.6 °F 30.09 in East 8.8 mph 11.5 mph 87 % 0.00 in
01:08 33.9 °F 30.4 °F 30.09 in East 9.1 mph 11.5 mph 87 % 0.00 in
01:13 33.7 °F 30.0 °F 30.09 in ENE 8.4 mph 11.5 mph 86 % 0.00 in
01:18 33.5 °F 29.8 °F 30.09 in East 9.5 mph 13.8 mph 86 % 0.00 in
01:23 33.5 °F 29.8 °F 30.09 in East 10.1 mph 11.5 mph 86 % 0.00 in
01:28 33.6 °F 29.5 °F 30.10 in ENE 12.0 mph 15.0 mph 85 % 0.00 in
01:33 33.6 °F 29.6 °F 30.10 in ENE 9.8 mph 13.0 mph 85 % 0.00 in
01:38 33.5 °F 29.5 °F 30.10 in ENE 9.0 mph 13.0 mph 85 % 0.00 in
01:43 33.5 °F 29.5 °F 30.11 in ENE 10.0 mph 14.0 mph 85 % 0.00 in
01:48 33.5 °F 29.5 °F 30.11 in ENE 9.0 mph 12.0 mph 85 % 0.00 in
01:53 33.4 °F 29.4 °F 30.10 in NE 7.7 mph 10.4 mph 85 % 0.00 in
01:58 33.3 °F 29.3 °F 30.11 in East 8.4 mph 13.8 mph 85 % 0.00 in
02:03 33.3 °F 29.3 °F 30.11 in ENE 7.5 mph 13.8 mph 85 % 0.00 in
02:08 33.2 °F 29.2 °F 30.11 in ENE 7.8 mph 11.5 mph 85 % 0.00 in
02:14 33.2 °F 29.2 °F 30.11 in ENE 9.0 mph 11.5 mph 85 % 0.00 in
02:19 33.2 °F 29.2 °F 30.11 in ENE 6.8 mph 10.4 mph 85 % 0.00 in
02:24 33.2 °F 29.2 °F 30.10 in ENE 6.6 mph 10.4 mph 85 % 0.00 in
02:29 33.2 °F 29.5 °F 30.11 in NE 7.4 mph 10.4 mph 86 % 0.00 in
02:34 33.2 °F 29.5 °F 30.10 in ENE 6.6 mph 10.4 mph 86 % 0.00 in
02:39 33.2 °F 29.5 °F 30.10 in ENE 7.8 mph 10.0 mph 86 % 0.00 in
02:44 33.1 °F 29.4 °F 30.11 in ENE 6.5 mph 10.4 mph 86 % 0.00 in
02:49 33.0 °F 29.0 °F 30.10 in ENE 7.2 mph 9.2 mph 85 % 0.00 in
02:54 33.0 °F 29.0 °F 30.09 in NE 7.9 mph 10.4 mph 85 % 0.00 in
02:59 32.9 °F 28.9 °F 30.09 in ENE 7.0 mph 11.0 mph 85 % 0.00 in
03:04 32.8 °F 28.8 °F 30.10 in ENE 5.8 mph 10.4 mph 85 % 0.00 in
03:09 32.8 °F 28.8 °F 30.10 in ENE 6.5 mph 10.4 mph 85 % 0.00 in
03:14 32.7 °F 28.7 °F 30.10 in NE 6.0 mph 10.0 mph 85 % 0.00 in
03:19 32.7 °F 28.7 °F 30.09 in ENE 6.6 mph 11.5 mph 85 % 0.00 in
03:24 32.7 °F 28.7 °F 30.10 in ENE 6.0 mph 11.5 mph 85 % 0.00 in
03:30 32.6 °F 28.6 °F 30.09 in ENE 4.9 mph 9.2 mph 85 % 0.00 in
03:35 32.6 °F 28.6 °F 30.10 in ENE 6.2 mph 11.5 mph 85 % 0.00 in
03:40 32.6 °F 28.6 °F 30.09 in NE 7.9 mph 11.5 mph 85 % 0.00 in
03:45 32.6 °F 28.6 °F 30.09 in ENE 7.9 mph 11.5 mph 85 % 0.00 in
03:50 32.6 °F 28.6 °F 30.10 in NE 6.4 mph 10.4 mph 85 % 0.00 in
03:55 32.6 °F 28.6 °F 30.10 in ENE 7.1 mph 12.7 mph 85 % 0.00 in
04:00 32.6 °F 28.6 °F 30.09 in East 7.6 mph 10.4 mph 85 % 0.00 in
04:05 32.5 °F 28.5 °F 30.09 in NE 8.9 mph 11.5 mph 85 % 0.00 in
04:10 32.4 °F 28.4 °F 30.09 in ENE 6.9 mph 9.2 mph 85 % 0.00 in
04:15 32.4 °F 28.4 °F 30.09 in NE 8.7 mph 11.5 mph 85 % 0.00 in
04:20 32.3 °F 28.3 °F 30.09 in NE 8.1 mph 11.5 mph 85 % 0.00 in
04:25 32.3 °F 28.3 °F 30.09 in ENE 10.7 mph 13.0 mph 85 % 0.00 in
04:30 32.1 °F 28.1 °F 30.09 in ENE 6.5 mph 11.5 mph 85 % 0.00 in
04:35 32.1 °F 28.1 °F 30.10 in ENE 8.9 mph 11.5 mph 85 % 0.00 in
04:40 32.0 °F 28.0 °F 30.09 in ENE 10.1 mph 12.7 mph 85 % 0.00 in
04:45 32.0 °F 28.0 °F 30.10 in ENE 9.0 mph 9.2 mph 85 % 0.00 in
04:51 31.9 °F 27.9 °F 30.10 in ENE 8.7 mph 13.8 mph 85 % 0.00 in
04:56 31.8 °F 27.8 °F 30.10 in NE 8.1 mph 11.5 mph 85 % 0.00 in
05:01 31.7 °F 27.7 °F 30.09 in ENE 9.0 mph 11.5 mph 85 % 0.00 in
05:06 31.7 °F 27.7 °F 30.09 in ENE 8.5 mph 12.7 mph 85 % 0.00 in
05:11 31.6 °F 27.6 °F 30.09 in ENE 8.1 mph 12.7 mph 85 % 0.00 in
05:16 31.6 °F 27.6 °F 30.09 in ENE 8.0 mph 12.7 mph 85 % 0.00 in
05:21 31.6 °F 27.6 °F 30.09 in ENE 7.8 mph 11.5 mph 85 % 0.00 in
05:26 31.5 °F 27.5 °F 30.10 in ENE 6.5 mph 11.5 mph 85 % 0.00 in
05:32 31.4 °F 27.7 °F 30.09 in East 8.9 mph 12.0 mph 86 % 0.00 in
05:37 31.4 °F 27.7 °F 30.09 in ENE 10.5 mph 13.8 mph 86 % 0.00 in
05:42 31.4 °F 27.7 °F 30.09 in ENE 8.3 mph 13.8 mph 86 % 0.00 in
05:47 31.2 °F 27.5 °F 30.09 in East 8.7 mph 11.5 mph 86 % 0.00 in
05:52 31.2 °F 27.5 °F 30.09 in ENE 8.9 mph 13.0 mph 86 % 0.00 in
05:57 31.1 °F 27.4 °F 30.10 in ENE 8.4 mph 11.5 mph 86 % 0.00 in
06:02 31.0 °F 27.6 °F 30.09 in ENE 8.8 mph 11.5 mph 87 % 0.00 in
06:07 30.9 °F 27.2 °F 30.09 in ENE 10.5 mph 13.8 mph 86 % 0.00 in
06:12 30.9 °F 27.5 °F 30.10 in ENE 8.7 mph 11.0 mph 87 % 0.00 in
06:17 30.8 °F 27.4 °F 30.10 in ENE 8.6 mph 11.5 mph 87 % 0.00 in
06:22 30.7 °F 27.3 °F 30.10 in ENE 7.7 mph 11.5 mph 87 % 0.00 in
06:27 30.6 °F 27.2 °F 30.10 in ENE 8.7 mph 11.5 mph 87 % 0.00 in
06:32 30.6 °F 27.2 °F 30.10 in NE 8.4 mph 11.5 mph 87 % 0.00 in
06:37 30.6 °F 27.2 °F 30.09 in NE 7.4 mph 12.7 mph 87 % 0.00 in
06:42 30.5 °F 27.4 °F 30.09 in NE 7.7 mph 15.0 mph 88 % 0.00 in
06:47 30.4 °F 27.3 °F 30.08 in ENE 9.2 mph 12.7 mph 88 % 0.00 in
06:53 30.3 °F 27.4 °F 30.08 in ENE 9.0 mph 15.0 mph 89 % 0.00 in
06:58 30.3 °F 27.4 °F 30.08 in NE 9.6 mph 12.7 mph 89 % 0.00 in
07:03 30.2 °F 27.3 °F 30.08 in ENE 9.6 mph 12.7 mph 89 % 0.00 in
07:08 30.1 °F 27.5 °F 30.08 in ENE 10.3 mph 12.7 mph 90 % 0.00 in
07:13 30.1 °F 27.5 °F 30.07 in ENE 11.0 mph 16.1 mph 90 % 0.01 in
07:18 30.1 °F 27.8 °F 30.06 in ENE 10.9 mph 16.1 mph 91 % 0.01 in
07:23 30.2 °F 27.9 °F 30.06 in ENE 8.6 mph 13.8 mph 91 % 0.01 in
07:28 30.2 °F 28.2 °F 30.05 in ENE 9.0 mph 14.0 mph 92 % 0.00 in
07:33 30.4 °F 28.4 °F 30.05 in ENE 8.0 mph 12.0 mph 92 % 0.00 in
07:38 30.5 °F 28.5 °F 30.05 in East 9.0 mph 14.0 mph 92 % 0.00 in
07:44 30.6 °F 28.6 °F 30.04 in ENE 9.3 mph 12.7 mph 92 % 0.02 in
07:49 30.6 °F 28.8 °F 30.04 in East 9.6 mph 11.5 mph 93 % 0.02 in
07:54 30.7 °F 28.9 °F 30.04 in ENE 8.8 mph 12.7 mph 93 % 0.02 in
07:59 30.7 °F 28.7 °F 30.04 in East 10.0 mph 12.7 mph 92 % 0.02 in
08:04 30.7 °F 28.9 °F 30.04 in East 8.7 mph 10.4 mph 93 % 0.02 in
08:09 30.7 °F 28.9 °F 30.05 in ENE 8.0 mph 11.0 mph 93 % 0.02 in
08:14 30.7 °F 28.9 °F 30.05 in East 8.2 mph 10.0 mph 93 % 0.01 in
08:19 30.7 °F 28.9 °F 30.06 in ENE 8.0 mph 11.0 mph 93 % 0.01 in
08:24 30.7 °F 28.9 °F 30.07 in East 6.5 mph 8.1 mph 93 % 0.01 in
08:29 30.7 °F 28.9 °F 30.07 in East 4.7 mph 8.1 mph 93 % 0.01 in
08:34 30.8 °F 29.0 °F 30.06 in East 6.7 mph 9.2 mph 93 % 0.00 in
08:39 30.7 °F 28.9 °F 30.06 in East 4.2 mph 5.0 mph 93 % 0.00 in
08:44 30.7 °F 29.2 °F 30.06 in East 6.6 mph 8.1 mph 94 % 0.01 in
08:49 30.7 °F 28.9 °F 30.05 in East 7.1 mph 8.0 mph 93 % 0.01 in
08:54 30.7 °F 28.9 °F 30.05 in ENE 7.4 mph 10.4 mph 93 % 0.01 in
08:59 30.6 °F 28.8 °F 30.04 in East 7.3 mph 10.4 mph 93 % 0.01 in
09:05 30.6 °F 29.1 °F 30.04 in East 8.0 mph 10.4 mph 94 % 0.02 in
09:10 30.6 °F 29.1 °F 30.04 in ENE 7.1 mph 11.0 mph 94 % 0.02 in
09:15 30.6 °F 29.1 °F 30.04 in ENE 8.1 mph 10.4 mph 94 % 0.02 in
09:20 30.5 °F 29.0 °F 30.04 in ENE 7.0 mph 9.2 mph 94 % 0.02 in
09:25 30.5 °F 29.0 °F 30.04 in ENE 6.5 mph 8.1 mph 94 % 0.02 in
09:30 30.6 °F 29.1 °F 30.04 in East 7.9 mph 10.4 mph 94 % 0.03 in
09:35 30.6 °F 29.1 °F 30.04 in East 7.2 mph 9.2 mph 94 % 0.03 in
09:40 30.6 °F 29.1 °F 30.02 in East 7.5 mph 9.2 mph 94 % 0.03 in
09:45 30.6 °F 29.1 °F 30.02 in NE 8.2 mph 11.5 mph 94 % 0.03 in
09:50 30.6 °F 29.3 °F 30.02 in NE 7.2 mph 10.4 mph 95 % 0.03 in
09:55 30.6 °F 29.3 °F 30.01 in East 8.8 mph 10.4 mph 95 % 0.04 in
10:00 30.7 °F 29.4 °F 30.01 in East 8.4 mph 11.0 mph 95 % 0.04 in
10:05 30.7 °F 29.4 °F 30.01 in ENE 7.2 mph 9.2 mph 95 % 0.03 in
10:10 30.7 °F 29.4 °F 30.00 in ENE 9.0 mph 12.7 mph 95 % 0.03 in
10:16 30.7 °F 29.4 °F 30.00 in East 8.4 mph 10.4 mph 95 % 0.04 in
10:21 30.8 °F 29.5 °F 30.00 in East 7.1 mph 9.2 mph 95 % 0.04 in
10:26 30.9 °F 29.6 °F 30.01 in East 7.7 mph 10.4 mph 95 % 0.04 in
10:31 30.9 °F 29.6 °F 30.01 in ENE 8.2 mph 10.4 mph 95 % 0.03 in
10:36 30.9 °F 29.6 °F 30.01 in ENE 6.9 mph 8.1 mph 95 % 0.03 in
10:41 30.9 °F 29.6 °F 30.01 in ENE 5.6 mph 9.2 mph 95 % 0.03 in
10:46 30.9 °F 29.6 °F 30.00 in East 6.8 mph 10.4 mph 95 % 0.02 in
10:51 31.0 °F 29.7 °F 30.00 in ENE 5.1 mph 8.1 mph 95 % 0.03 in
10:56 31.0 °F 29.7 °F 30.00 in ENE 7.3 mph 11.5 mph 95 % 0.02 in
11:01 30.9 °F 29.6 °F 29.98 in ENE 8.0 mph 11.5 mph 95 % 0.02 in
11:06 30.8 °F 29.5 °F 29.97 in ENE 6.6 mph 8.1 mph 95 % 0.03 in
11:11 30.7 °F 29.4 °F 29.96 in ENE 8.3 mph 12.7 mph 95 % 0.03 in
11:16 30.6 °F 29.3 °F 29.96 in ENE 9.1 mph 12.7 mph 95 % 0.02 in
11:21 30.6 °F 29.3 °F 29.95 in NE 8.5 mph 11.5 mph 95 % 0.02 in
11:26 30.5 °F 29.2 °F 29.95 in ENE 8.9 mph 11.5 mph 95 % 0.03 in
11:32 30.5 °F 29.2 °F 29.94 in East 9.6 mph 12.7 mph 95 % 0.03 in
11:37 30.6 °F 29.6 °F 29.92 in ENE 10.7 mph 13.8 mph 96 % 0.04 in
11:42 30.8 °F 29.8 °F 29.91 in ENE 11.9 mph 15.0 mph 96 % 0.04 in
11:47 31.1 °F 30.1 °F 29.90 in East 11.2 mph 15.0 mph 96 % 0.04 in
11:52 31.1 °F 30.1 °F 29.90 in ENE 9.7 mph 12.0 mph 96 % 0.04 in
11:57 31.1 °F 30.1 °F 29.90 in ENE 8.5 mph 11.5 mph 96 % 0.05 in
12:02 31.2 °F 30.2 °F 29.89 in ENE 7.8 mph 10.4 mph 96 % 0.06 in
12:07 31.4 °F 30.4 °F 29.88 in East 8.3 mph 13.0 mph 96 % 0.06 in
12:12 31.6 °F 30.6 °F 29.87 in East 11.3 mph 12.7 mph 96 % 0.07 in
12:17 31.9 °F 31.1 °F 29.85 in East 9.0 mph 12.7 mph 97 % 0.07 in
12:22 32.1 °F 31.3 °F 29.85 in East 9.3 mph 11.5 mph 97 % 0.08 in
12:27 32.2 °F 31.4 °F 29.85 in East 8.2 mph 9.2 mph 97 % 0.08 in
12:32 32.3 °F 31.3 °F 29.84 in East 10.3 mph 12.7 mph 96 % 0.08 in
12:37 32.4 °F 31.4 °F 29.83 in East 8.0 mph 11.5 mph 96 % 0.07 in
12:42 32.5 °F 31.5 °F 29.84 in ENE 7.9 mph 11.5 mph 96 % 0.07 in
12:47 32.5 °F 31.7 °F 29.84 in ENE 7.9 mph 10.4 mph 97 % 0.07 in
12:52 32.6 °F 31.8 °F 29.83 in East 7.6 mph 10.4 mph 97 % 0.07 in
12:57 32.6 °F 31.8 °F 29.84 in East 7.2 mph 9.2 mph 97 % 0.06 in
13:02 32.6 °F 31.8 °F 29.84 in ENE 6.6 mph 9.2 mph 97 % 0.06 in
13:07 32.7 °F 31.9 °F 29.85 in East 6.9 mph 9.2 mph 97 % 0.06 in
13:12 32.7 °F 31.9 °F 29.83 in East 7.3 mph 9.2 mph 97 % 0.06 in
13:18 32.8 °F 32.0 °F 29.82 in ENE 6.7 mph 8.1 mph 97 % 0.07 in
13:23 32.9 °F 32.1 °F 29.82 in ENE 7.2 mph 8.1 mph 97 % 0.07 in
13:28 32.9 °F 32.1 °F 29.80 in East 7.0 mph 8.1 mph 97 % 0.07 in
13:33 32.9 °F 32.1 °F 29.80 in ENE 6.0 mph 8.1 mph 97 % 0.08 in
13:38 33.0 °F 32.2 °F 29.80 in East 5.8 mph 8.1 mph 97 % 0.08 in
13:43 33.0 °F 32.2 °F 29.79 in East 8.4 mph 10.4 mph 97 % 0.09 in
13:48 33.2 °F 32.4 °F 29.78 in East 7.3 mph 10.4 mph 97 % 0.08 in
13:53 33.3 °F 32.5 °F 29.77 in East 9.1 mph 11.5 mph 97 % 0.09 in
13:58 33.4 °F 32.6 °F 29.76 in ENE 8.4 mph 9.2 mph 97 % 0.10 in
14:03 33.5 °F 32.7 °F 29.75 in East 9.0 mph 11.5 mph 97 % 0.09 in
14:08 33.5 °F 32.7 °F 29.76 in East 6.0 mph 10.0 mph 97 % 0.00 in
14:13 33.5 °F 32.8 °F 29.75 in East 8.0 mph 12.0 mph 97 % 0.00 in
14:18 33.6 °F 32.8 °F 29.76 in East 7.8 mph 11.5 mph 97 % 0.06 in
14:23 33.7 °F 32.9 °F 29.75 in East 7.0 mph 10.0 mph 97 % 0.00 in
14:28 33.8 °F 33.0 °F 29.75 in ENE 7.0 mph 9.0 mph 97 % 0.00 in
14:33 33.8 °F 33.1 °F 29.74 in East 8.0 mph 13.0 mph 97 % 0.00 in
14:38 33.9 °F 33.1 °F 29.75 in East 8.0 mph 10.0 mph 97 % 0.00 in
14:43 34.0 °F 33.2 °F 29.74 in ENE 8.0 mph 10.0 mph 97 % 0.00 in
14:48 34.1 °F 33.3 °F 29.74 in East 8.0 mph 10.0 mph 97 % 0.00 in
14:53 34.1 °F 33.3 °F 29.74 in East 7.0 mph 10.0 mph 97 % 0.00 in
14:58 34.2 °F 33.4 °F 29.73 in ENE 7.2 mph 9.2 mph 97 % 0.00 in
15:03 34.3 °F 33.5 °F 29.73 in East 6.9 mph 9.2 mph 97 % 0.01 in
15:08 34.4 °F 33.6 °F 29.73 in East 6.8 mph 9.2 mph 97 % 0.01 in
15:13 34.5 °F 33.7 °F 29.72 in East 6.4 mph 9.2 mph 97 % 0.01 in
15:18 34.6 °F 34.1 °F 29.72 in East 6.8 mph 9.0 mph 98 % 0.01 in
15:24 34.7 °F 34.2 °F 29.71 in East 7.7 mph 10.4 mph 98 % 0.01 in
15:29 34.9 °F 34.1 °F 29.71 in East 7.1 mph 9.2 mph 97 % 0.01 in
15:34 35.1 °F 34.3 °F 29.71 in East 6.9 mph 9.2 mph 97 % 0.01 in
15:39 35.2 °F 34.4 °F 29.71 in ENE 8.6 mph 11.0 mph 97 % 0.01 in
15:44 35.4 °F 34.9 °F 29.71 in ENE 7.7 mph 10.4 mph 98 % 0.01 in
15:49 35.5 °F 35.0 °F 29.70 in ENE 7.9 mph 11.5 mph 98 % 0.01 in
15:54 35.7 °F 35.2 °F 29.69 in East 6.9 mph 10.4 mph 98 % 0.01 in
15:59 35.8 °F 35.3 °F 29.69 in ENE 6.8 mph 9.2 mph 98 % 0.02 in
16:04 35.9 °F 35.4 °F 29.69 in East 6.2 mph 8.0 mph 98 % 0.01 in
16:09 36.0 °F 35.5 °F 29.69 in ENE 6.8 mph 9.2 mph 98 % 0.01 in
16:14 36.1 °F 35.6 °F 29.68 in East 7.5 mph 10.0 mph 98 % 0.01 in
16:19 36.1 °F 35.6 °F 29.67 in East 7.7 mph 10.4 mph 98 % 0.01 in
16:24 36.1 °F 35.6 °F 29.67 in ENE 6.7 mph 10.4 mph 98 % 0.01 in
16:29 36.2 °F 35.7 °F 29.66 in ENE 7.2 mph 10.4 mph 98 % 0.01 in
16:34 36.2 °F 35.7 °F 29.65 in East 8.1 mph 10.4 mph 98 % 0.01 in
16:39 36.2 °F 35.7 °F 29.65 in East 7.1 mph 10.4 mph 98 % 0.01 in
16:44 36.2 °F 35.7 °F 29.65 in East 5.7 mph 9.0 mph 98 % 0.01 in
16:50 36.2 °F 35.7 °F 29.64 in East 6.7 mph 10.4 mph 98 % 0.01 in
16:55 36.2 °F 35.7 °F 29.64 in East 6.9 mph 8.1 mph 98 % 0.01 in
17:00 36.3 °F 35.8 °F 29.64 in East 6.7 mph 9.2 mph 98 % 0.00 in
17:05 36.3 °F 35.8 °F 29.64 in ENE 7.6 mph 10.4 mph 98 % 0.00 in
17:10 36.4 °F 35.9 °F 29.64 in ENE 7.5 mph 9.2 mph 98 % 0.00 in
17:15 36.4 °F 35.9 °F 29.63 in ENE 7.4 mph 10.4 mph 98 % 0.00 in
17:20 36.4 °F 35.9 °F 29.63 in East 7.4 mph 9.2 mph 98 % 0.00 in
17:25 36.4 °F 35.9 °F 29.63 in ENE 5.6 mph 9.2 mph 98 % 0.00 in
17:30 36.5 °F 36.0 °F 29.64 in ENE 6.0 mph 6.0 mph 98 % 0.00 in
17:35 36.6 °F 36.1 °F 29.65 in ENE 9.2 mph 10.4 mph 98 % 0.00 in
17:40 36.7 °F 36.2 °F 29.64 in ENE 6.9 mph 9.2 mph 98 % 0.00 in
17:45 36.8 °F 36.3 °F 29.64 in East 5.9 mph 6.9 mph 98 % 0.00 in
17:50 36.8 °F 36.3 °F 29.63 in ENE 5.4 mph 8.1 mph 98 % 0.00 in
17:55 36.8 °F 36.3 °F 29.65 in North 3.2 mph 5.8 mph 98 % 0.01 in
18:00 36.5 °F 36.0 °F 29.63 in NE 4.3 mph 10.4 mph 98 % 0.01 in
18:05 35.5 °F 35.0 °F 29.63 in NNE 4.6 mph 11.5 mph 98 % 0.01 in
18:10 35.2 °F 34.4 °F 29.64 in NNE 5.9 mph 15.0 mph 97 % 0.01 in
18:15 35.0 °F 34.2 °F 29.64 in North 2.7 mph 6.9 mph 97 % 0.01 in
18:21 34.8 °F 34.3 °F 29.64 in NNE 9.1 mph 13.8 mph 98 % 0.01 in
18:26 34.7 °F 34.2 °F 29.64 in North 4.5 mph 9.2 mph 98 % 0.01 in
18:31 34.6 °F 33.8 °F 29.65 in NNW 1.2 mph 3.5 mph 97 % 0.01 in
18:36 34.5 °F 33.7 °F 29.64 in NE 4.5 mph 8.1 mph 97 % 0.01 in
18:41 34.4 °F 33.9 °F 29.65 in NNW 4.1 mph 8.1 mph 98 % 0.01 in
18:46 34.4 °F 33.9 °F 29.63 in ENE 6.6 mph 10.0 mph 98 % 0.01 in
18:51 34.4 °F 33.9 °F 29.65 in WSW 4.1 mph 6.9 mph 98 % 0.01 in
18:56 34.5 °F 34.0 °F 29.64 in North 4.5 mph 9.2 mph 98 % 0.00 in
19:01 34.4 °F 33.9 °F 29.64 in NNE 1.2 mph 3.5 mph 98 % 0.00 in
19:06 34.5 °F 34.0 °F 29.65 in NNE 5.6 mph 9.2 mph 98 % 0.01 in
19:11 34.5 °F 34.0 °F 29.66 in NNW 4.5 mph 6.9 mph 98 % 0.01 in
19:16 34.5 °F 34.0 °F 29.65 in North 3.6 mph 6.9 mph 98 % 0.01 in
19:21 34.6 °F 34.1 °F 29.65 in NNE 3.5 mph 7.0 mph 98 % 0.01 in
19:27 34.7 °F 34.2 °F 29.65 in NNW 1.6 mph 3.5 mph 98 % 0.01 in
19:32 34.7 °F 34.2 °F 29.65 in NNW 2.0 mph 4.6 mph 98 % 0.01 in
19:37 34.7 °F 34.2 °F 29.64 in NE 3.9 mph 8.0 mph 98 % 0.01 in
19:42 34.8 °F 34.3 °F 29.64 in North 3.4 mph 5.8 mph 98 % 0.01 in
19:47 34.7 °F 34.2 °F 29.63 in NNE 3.0 mph 4.6 mph 98 % 0.01 in
19:52 34.7 °F 34.2 °F 29.64 in NNE 2.3 mph 3.5 mph 98 % 0.01 in
19:57 34.7 °F 34.2 °F 29.64 in NW 2.8 mph 4.6 mph 98 % 0.01 in
20:02 34.7 °F 34.2 °F 29.63 in NNE 2.8 mph 6.0 mph 98 % 0.01 in
20:07 34.6 °F 34.1 °F 29.63 in NNE 2.5 mph 5.0 mph 98 % 0.00 in
20:12 34.6 °F 34.1 °F 29.63 in North 2.0 mph 5.0 mph 98 % 0.00 in
20:17 34.5 °F 34.0 °F 29.63 in NW 2.5 mph 4.6 mph 98 % 0.00 in
20:22 34.5 °F 34.0 °F 29.64 in West 3.3 mph 7.0 mph 98 % 0.00 in
20:27 34.5 °F 34.0 °F 29.64 in West 3.3 mph 4.6 mph 98 % 0.00 in
20:32 34.4 °F 33.9 °F 29.63 in WNW 2.7 mph 4.6 mph 98 % 0.00 in
20:37 34.4 °F 33.9 °F 29.63 in NW 2.2 mph 8.1 mph 98 % 0.00 in
20:42 34.4 °F 33.9 °F 29.63 in WNW 4.1 mph 8.1 mph 98 % 0.00 in
20:48 34.4 °F 33.9 °F 29.63 in WNW 1.9 mph 5.8 mph 98 % 0.00 in
20:53 34.3 °F 33.8 °F 29.62 in NNW 2.0 mph 3.5 mph 98 % 0.00 in
20:58 34.3 °F 33.8 °F 29.62 in NW 1.8 mph 4.0 mph 98 % 0.00 in
21:03 34.3 °F 33.8 °F 29.62 in NW 2.1 mph 3.5 mph 98 % 0.00 in
21:08 34.3 °F 33.8 °F 29.62 in NW 5.5 mph 10.4 mph 98 % 0.00 in
21:13 34.3 °F 33.8 °F 29.62 in WNW 2.3 mph 9.2 mph 98 % 0.00 in
21:18 34.2 °F 33.7 °F 29.62 in West 3.0 mph 5.8 mph 98 % 0.00 in
21:23 34.1 °F 33.6 °F 29.61 in NW 2.1 mph 6.0 mph 98 % 0.00 in
21:28 34.0 °F 33.5 °F 29.61 in WNW 2.0 mph 5.8 mph 98 % 0.00 in
21:33 34.0 °F 33.5 °F 29.61 in WNW 4.0 mph 8.1 mph 98 % 0.00 in
21:38 33.9 °F 33.4 °F 29.60 in WNW 0.6 mph 2.3 mph 98 % 0.00 in
21:43 33.9 °F 33.4 °F 29.60 in WNW 2.9 mph 7.0 mph 98 % 0.00 in
21:48 33.9 °F 33.4 °F 29.60 in NW 2.3 mph 8.1 mph 98 % 0.00 in
21:53 33.9 °F 33.4 °F 29.60 in WNW 4.2 mph 8.0 mph 98 % 0.00 in
21:58 33.9 °F 33.4 °F 29.59 in NW 4.0 mph 8.1 mph 98 % 0.00 in
22:03 33.9 °F 33.4 °F 29.60 in WNW 3.0 mph 9.2 mph 98 % 0.00 in
22:08 33.9 °F 33.4 °F 29.60 in West 1.3 mph 5.8 mph 98 % 0.00 in
22:13 33.9 °F 33.4 °F 29.60 in NW 2.5 mph 5.8 mph 98 % 0.00 in
22:18 34.0 °F 33.5 °F 29.59 in West 2.2 mph 6.9 mph 98 % 0.00 in
22:23 33.9 °F 33.4 °F 29.59 in West 1.9 mph 3.5 mph 98 % 0.00 in
22:29 33.9 °F 33.4 °F 29.59 in WNW 0.5 mph 3.5 mph 98 % 0.00 in
22:34 33.9 °F 33.4 °F 29.58 in WNW 4.2 mph 6.9 mph 98 % 0.00 in
22:39 33.8 °F 33.3 °F 29.58 in WNW 3.6 mph 4.6 mph 98 % 0.00 in
22:44 33.7 °F 33.2 °F 29.58 in NW 1.1 mph 5.8 mph 98 % 0.00 in
22:49 33.7 °F 33.2 °F 29.58 in NW 1.1 mph 5.0 mph 98 % 0.00 in
22:54 33.6 °F 33.1 °F 29.58 in West 0.4 mph 3.5 mph 98 % 0.00 in
22:59 33.5 °F 33.0 °F 29.58 in West 1.3 mph 3.5 mph 98 % 0.00 in
23:04 33.4 °F 32.9 °F 29.57 in West 2.0 mph 3.5 mph 98 % 0.00 in
23:09 33.3 °F 32.8 °F 29.57 in West 0.4 mph 2.3 mph 98 % 0.00 in
23:14 33.3 °F 32.8 °F 29.56 in Calm   1.2 mph 98 % 0.00 in
23:19 33.2 °F 32.7 °F 29.56 in WSW 2.4 mph 4.6 mph 98 % 0.00 in
23:24 33.2 °F 32.7 °F 29.56 in West 2.2 mph 5.8 mph 98 % 0.00 in
23:29 33.1 °F 32.6 °F 29.55 in West 1.7 mph 4.6 mph 98 % 0.00 in
23:34 33.1 °F 32.6 °F 29.55 in WSW 3.3 mph 5.0 mph 98 % 0.00 in
23:39 33.1 °F 32.6 °F 29.55 in West 1.0 mph 3.5 mph 98 % 0.00 in
23:44 33.1 °F 32.6 °F 29.55 in WSW 2.8 mph 5.8 mph 98 % 0.00 in
23:49 33.0 °F 32.2 °F 29.55 in West 1.1 mph 3.5 mph 97 % 0.00 in
23:54 33.0 °F 32.2 °F 29.55 in WSW 2.1 mph 2.3 mph 97 % 0.00 in
23:59 33.0 °F 32.2 °F 29.55 in West 3.3 mph 9.2 mph 97 % 0.00 in
Crab Meadow Weather
Compliments of Weather Underground - 3 mb

Script developed by  Jim McMurry - jmcmurry@mwt.net Adapted for the template by  Wim van der Kuil - Leuven-Template.eu

Astronomy: Venus rotates east to west.